{"data":{"norad_id":59041,"epoch":"2026-09-20T08:02:45.678624Z","epoch_age_seconds":169948,"freshness":"FRESH","line1":"1 59041U 24038U   26263.33525091 -.00000030  00000+0  84253-5 0  9993","line2":"2 59041  43.0039   4.5786 0000783 296.2260  63.8511 15.27579176144569","mean_motion":15.27579176,"eccentricity":7.83e-5,"inclination_deg":43.0039,"raan_deg":4.5786,"arg_perigee_deg":296.226,"mean_anomaly_deg":63.8511,"bstar":8.4253e-6,"rev_number":14456,"period_min":94.266799562604,"perigee_km":482.51433232868,"apogee_km":483.58879445771,"semimajor_km":6861.1885633932,"source":"CELESTRAK","updated_at":"2026-09-21T09:00:34.032105Z"}}